Year,Month,Day,Hour,Minute,Value (Times are PST for temperature in C)
2021,04,26,00,00,6.90
2021,04,26,00,01,6.90
2021,04,26,00,02,6.90
2021,04,26,00,03,6.90
2021,04,26,00,04,6.90
2021,04,26,00,05,6.90
2021,04,26,00,06,6.90
2021,04,26,00,07,6.90
2021,04,26,00,08,6.90
2021,04,26,00,09,6.90
2021,04,26,00,10,6.90
2021,04,26,00,11,6.80
2021,04,26,00,12,6.80
2021,04,26,00,13,6.80
2021,04,26,00,14,6.80
2021,04,26,00,15,6.80
2021,04,26,00,16,6.70
2021,04,26,00,17,6.70
2021,04,26,00,18,6.70
2021,04,26,00,19,6.70
2021,04,26,00,20,6.70
2021,04,26,00,21,6.70
2021,04,26,00,22,6.70
2021,04,26,00,23,6.60
2021,04,26,00,24,6.60
2021,04,26,00,25,6.60
2021,04,26,00,26,6.60
2021,04,26,00,27,6.60
2021,04,26,00,28,6.60
2021,04,26,00,29,6.60
2021,04,26,00,30,6.50
2021,04,26,00,31,6.50
2021,04,26,00,32,6.50
2021,04,26,00,33,6.50
2021,04,26,00,34,6.50
2021,04,26,00,35,6.40
2021,04,26,00,36,6.40
2021,04,26,00,37,6.40
2021,04,26,00,38,6.40
2021,04,26,00,39,6.40
2021,04,26,00,40,6.40
2021,04,26,00,41,6.30
2021,04,26,00,42,6.30
2021,04,26,00,43,6.30
2021,04,26,00,44,6.30
2021,04,26,00,45,6.30
2021,04,26,00,46,6.30
2021,04,26,00,47,6.30
2021,04,26,00,48,6.30
2021,04,26,00,49,6.30
2021,04,26,00,50,6.30
2021,04,26,00,51,6.30
2021,04,26,00,52,6.30
2021,04,26,00,53,6.30
2021,04,26,00,54,6.30
2021,04,26,00,55,6.30
2021,04,26,00,56,6.30
2021,04,26,00,57,6.30
2021,04,26,00,58,6.30
2021,04,26,00,59,6.30
2021,04,26,01,00,6.30
2021,04,26,01,01,6.30
2021,04,26,01,02,6.30
2021,04,26,01,03,6.30
2021,04,26,01,04,6.30
2021,04,26,01,05,6.20
2021,04,26,01,06,6.20
2021,04,26,01,07,6.20
2021,04,26,01,08,6.30
2021,04,26,01,09,6.30
2021,04,26,01,10,6.30
2021,04,26,01,11,6.30
2021,04,26,01,12,6.30
2021,04,26,01,13,6.30
2021,04,26,01,14,6.30
2021,04,26,01,15,6.30
2021,04,26,01,16,6.30
2021,04,26,01,17,6.40
2021,04,26,01,18,6.40
2021,04,26,01,19,6.40
2021,04,26,01,20,6.40
2021,04,26,01,21,6.40
2021,04,26,01,22,6.40
2021,04,26,01,23,6.40
2021,04,26,01,24,6.40
2021,04,26,01,25,6.40
2021,04,26,01,26,6.40
2021,04,26,01,27,6.40
2021,04,26,01,28,6.40
2021,04,26,01,29,6.40
2021,04,26,01,30,6.40
2021,04,26,01,31,6.40
2021,04,26,01,32,6.50
2021,04,26,01,33,6.50
2021,04,26,01,34,6.50
2021,04,26,01,35,6.50
2021,04,26,01,36,6.60
2021,04,26,01,37,6.50
2021,04,26,01,38,6.50
2021,04,26,01,39,6.60
2021,04,26,01,40,6.60
2021,04,26,01,41,6.60
2021,04,26,01,42,6.60
2021,04,26,01,43,6.60
2021,04,26,01,44,6.60
2021,04,26,01,45,6.60
2021,04,26,01,46,6.60
2021,04,26,01,47,6.60
2021,04,26,01,48,6.60
2021,04,26,01,49,6.60
2021,04,26,01,50,6.60
2021,04,26,01,51,6.60
2021,04,26,01,52,6.60
2021,04,26,01,53,6.70
2021,04,26,01,54,6.70
2021,04,26,01,55,6.70
2021,04,26,01,56,6.70
2021,04,26,01,57,6.70
2021,04,26,01,58,6.70
2021,04,26,01,59,6.70
2021,04,26,02,00,6.70
2021,04,26,02,01,6.70
2021,04,26,02,02,6.70
2021,04,26,02,03,6.70
2021,04,26,02,04,6.80
2021,04,26,02,05,6.70
2021,04,26,02,06,6.70
2021,04,26,02,07,6.80
2021,04,26,02,08,6.80
2021,04,26,02,09,6.80
2021,04,26,02,10,6.80
2021,04,26,02,11,6.90
2021,04,26,02,12,6.90
2021,04,26,02,13,6.90
2021,04,26,02,14,6.90
2021,04,26,02,15,6.90
2021,04,26,02,16,6.90
2021,04,26,02,17,6.90
2021,04,26,02,18,6.90
2021,04,26,02,19,6.90
2021,04,26,02,20,6.90
2021,04,26,02,21,6.90
2021,04,26,02,22,6.90
2021,04,26,02,23,6.90
2021,04,26,02,24,6.90
2021,04,26,02,25,6.90
2021,04,26,02,26,6.90
2021,04,26,02,27,6.90
2021,04,26,02,28,7.00
2021,04,26,02,29,6.90
2021,04,26,02,30,6.90
2021,04,26,02,31,7.00
2021,04,26,02,32,7.00
2021,04,26,02,33,7.00
2021,04,26,02,34,7.00
2021,04,26,02,35,7.00
2021,04,26,02,36,7.00
2021,04,26,02,37,7.10
2021,04,26,02,38,7.00
2021,04,26,02,39,7.00
2021,04,26,02,40,7.10
2021,04,26,02,41,7.10
2021,04,26,02,42,7.10
2021,04,26,02,43,7.10
2021,04,26,02,44,7.10
2021,04,26,02,45,7.10
2021,04,26,02,46,7.10
2021,04,26,02,47,7.10
2021,04,26,02,48,7.10
2021,04,26,02,49,7.10
2021,04,26,02,50,7.10
2021,04,26,02,51,7.10
2021,04,26,02,52,7.10
2021,04,26,02,53,7.10
2021,04,26,02,54,7.20
2021,04,26,02,55,7.20
2021,04,26,02,56,7.20
2021,04,26,02,57,7.20
2021,04,26,02,58,7.20
2021,04,26,02,59,7.30
2021,04,26,03,00,7.30
2021,04,26,03,01,7.30
2021,04,26,03,02,7.30
2021,04,26,03,03,7.30
2021,04,26,03,04,7.30
2021,04,26,03,05,7.30
2021,04,26,03,06,7.30
2021,04,26,03,07,7.30
2021,04,26,03,08,7.30
2021,04,26,03,09,7.30
2021,04,26,03,10,7.30
2021,04,26,03,11,7.30
2021,04,26,03,12,7.30
2021,04,26,03,13,7.30
2021,04,26,03,14,7.30
2021,04,26,03,15,7.30
2021,04,26,03,16,7.30
2021,04,26,03,17,7.30
2021,04,26,03,18,7.30
2021,04,26,03,19,7.30
2021,04,26,03,20,7.30
2021,04,26,03,21,7.30
2021,04,26,03,22,7.30
2021,04,26,03,23,7.30
2021,04,26,03,24,7.30
2021,04,26,03,25,7.30
2021,04,26,03,26,7.30
2021,04,26,03,27,7.30
2021,04,26,03,28,7.30
2021,04,26,03,29,7.30
2021,04,26,03,30,7.30
2021,04,26,03,31,7.30
2021,04,26,03,32,7.30
2021,04,26,03,33,7.30
2021,04,26,03,34,7.30
2021,04,26,03,35,7.30
2021,04,26,03,36,7.30
2021,04,26,03,37,7.40
2021,04,26,03,38,7.40
2021,04,26,03,39,7.40
2021,04,26,03,40,7.40
2021,04,26,03,41,7.40
2021,04,26,03,42,7.40
2021,04,26,03,43,7.40
2021,04,26,03,44,7.30
2021,04,26,03,45,7.30
2021,04,26,03,46,7.30
2021,04,26,03,47,7.30
2021,04,26,03,48,7.30
2021,04,26,03,49,7.30
2021,04,26,03,50,7.30
2021,04,26,03,51,7.40
2021,04,26,03,52,7.40
2021,04,26,03,53,7.40
2021,04,26,03,54,7.40
2021,04,26,03,55,7.40
2021,04,26,03,56,7.40
2021,04,26,03,57,7.40
2021,04,26,03,58,7.40
2021,04,26,03,59,7.40
2021,04,26,04,00,7.30
2021,04,26,04,01,7.30
2021,04,26,04,02,7.40
2021,04,26,04,03,7.30
2021,04,26,04,04,7.40
2021,04,26,04,05,7.30
2021,04,26,04,06,7.30
2021,04,26,04,07,7.40
2021,04,26,04,08,7.30
2021,04,26,04,09,7.30
2021,04,26,04,10,7.30
2021,04,26,04,11,7.40
2021,04,26,04,12,7.30
2021,04,26,04,13,7.40
2021,04,26,04,14,7.40
2021,04,26,04,15,7.40
2021,04,26,04,16,7.40
2021,04,26,04,17,7.40
2021,04,26,04,18,7.40
2021,04,26,04,19,7.40
2021,04,26,04,20,7.40
2021,04,26,04,21,7.40
2021,04,26,04,22,7.40
2021,04,26,04,23,7.40
2021,04,26,04,24,7.30
2021,04,26,04,25,7.40
2021,04,26,04,26,7.30
2021,04,26,04,27,7.30
2021,04,26,04,28,7.30
2021,04,26,04,29,7.30
2021,04,26,04,30,7.30
2021,04,26,04,31,7.30
2021,04,26,04,32,7.30
2021,04,26,04,33,7.30
2021,04,26,04,34,7.30
2021,04,26,04,35,7.30
2021,04,26,04,36,7.30
2021,04,26,04,37,7.30
2021,04,26,04,38,7.30
2021,04,26,04,39,7.30
2021,04,26,04,40,7.30
2021,04,26,04,41,7.30
2021,04,26,04,42,7.30
2021,04,26,04,43,7.30
2021,04,26,04,44,7.30
2021,04,26,04,45,7.30
2021,04,26,04,46,7.30
2021,04,26,04,47,7.30
2021,04,26,04,48,7.30
2021,04,26,04,49,7.30
2021,04,26,04,50,7.30
2021,04,26,04,51,7.30
2021,04,26,04,52,7.30
2021,04,26,04,53,7.20
2021,04,26,04,54,7.30
2021,04,26,04,55,7.30
2021,04,26,04,56,7.30
2021,04,26,04,57,7.20
2021,04,26,04,58,7.20
2021,04,26,04,59,7.20
2021,04,26,05,00,7.20
2021,04,26,05,01,7.30
2021,04,26,05,02,7.30
2021,04,26,05,03,7.30
2021,04,26,05,04,7.30
2021,04,26,05,05,7.30
2021,04,26,05,06,7.30
2021,04,26,05,07,7.30
2021,04,26,05,08,7.30
2021,04,26,05,09,7.30
2021,04,26,05,10,7.30
2021,04,26,05,11,7.30
2021,04,26,05,12,7.40
2021,04,26,05,13,7.40
2021,04,26,05,14,7.40
2021,04,26,05,15,7.40
2021,04,26,05,16,7.40
2021,04,26,05,17,7.40
2021,04,26,05,18,7.40
2021,04,26,05,19,7.40
2021,04,26,05,20,7.40
2021,04,26,05,21,7.40
2021,04,26,05,22,7.40
2021,04,26,05,23,7.40
2021,04,26,05,24,7.40
2021,04,26,05,25,7.40
2021,04,26,05,26,7.30
2021,04,26,05,27,7.40
2021,04,26,05,28,7.30
2021,04,26,05,29,7.30
2021,04,26,05,30,7.30
2021,04,26,05,31,7.30
2021,04,26,05,32,7.30
2021,04,26,05,33,7.30
2021,04,26,05,34,7.30
2021,04,26,05,35,7.30
2021,04,26,05,36,7.30
2021,04,26,05,37,7.30
2021,04,26,05,38,7.30
2021,04,26,05,39,7.30
2021,04,26,05,40,7.30
2021,04,26,05,41,7.30
2021,04,26,05,42,7.30
2021,04,26,05,43,7.30
2021,04,26,05,44,7.30
2021,04,26,05,45,7.30
2021,04,26,05,46,7.20
2021,04,26,05,47,7.20
2021,04,26,05,48,7.20
2021,04,26,05,49,7.20
2021,04,26,05,50,7.20
2021,04,26,05,51,7.20
2021,04,26,05,52,7.20
2021,04,26,05,53,7.20
2021,04,26,05,54,7.20
2021,04,26,05,55,7.20
2021,04,26,05,56,7.20
2021,04,26,05,57,7.20
2021,04,26,05,58,7.20
2021,04,26,05,59,7.20
2021,04,26,06,00,7.20
2021,04,26,06,01,7.20
2021,04,26,06,02,7.20
2021,04,26,06,03,7.20
2021,04,26,06,04,7.20
2021,04,26,06,05,7.20
2021,04,26,06,06,7.30
2021,04,26,06,07,7.30
2021,04,26,06,08,7.30
2021,04,26,06,09,7.30
2021,04,26,06,10,7.30
2021,04,26,06,11,7.30
2021,04,26,06,12,7.30
2021,04,26,06,13,7.30
2021,04,26,06,14,7.30
2021,04,26,06,15,7.30
2021,04,26,06,16,7.30
2021,04,26,06,17,7.30
2021,04,26,06,18,7.30
2021,04,26,06,19,7.20
2021,04,26,06,20,7.30
2021,04,26,06,21,7.20
2021,04,26,06,22,7.20
2021,04,26,06,23,7.20
2021,04,26,06,24,7.20
2021,04,26,06,25,7.20
2021,04,26,06,26,7.30
2021,04,26,06,27,7.30
2021,04,26,06,28,7.30
2021,04,26,06,29,7.30
2021,04,26,06,30,7.30
2021,04,26,06,31,7.20
2021,04,26,06,32,7.20
2021,04,26,06,33,7.30
2021,04,26,06,34,7.20
2021,04,26,06,35,7.30
2021,04,26,06,36,7.30
2021,04,26,06,37,7.20
2021,04,26,06,38,7.20
2021,04,26,06,39,7.20
2021,04,26,06,40,7.20
2021,04,26,06,41,7.20
2021,04,26,06,42,7.20
2021,04,26,06,43,7.20
2021,04,26,06,44,7.20
2021,04,26,06,45,7.20
2021,04,26,06,46,7.20
2021,04,26,06,47,7.20
2021,04,26,06,48,7.20
2021,04,26,06,49,7.20
2021,04,26,06,50,7.30
2021,04,26,06,51,7.30
2021,04,26,06,52,7.30
2021,04,26,06,53,7.30
2021,04,26,06,54,7.30
2021,04,26,06,55,7.30
2021,04,26,06,56,7.30
2021,04,26,06,57,7.30
2021,04,26,06,58,7.30
2021,04,26,06,59,7.40
2021,04,26,07,00,7.40
2021,04,26,07,01,7.50
2021,04,26,07,02,7.50
2021,04,26,07,03,7.60
2021,04,26,07,04,7.60
2021,04,26,07,05,7.70
2021,04,26,07,06,7.70
2021,04,26,07,07,7.70
2021,04,26,07,08,7.70
2021,04,26,07,09,7.80
2021,04,26,07,10,7.80
2021,04,26,07,11,7.80
2021,04,26,07,12,7.80
2021,04,26,07,13,7.90
2021,04,26,07,14,7.90
2021,04,26,07,15,7.90
2021,04,26,07,16,7.90
2021,04,26,07,17,8.00
2021,04,26,07,18,8.00
2021,04,26,07,19,8.00
2021,04,26,07,20,8.10
2021,04,26,07,21,8.10
2021,04,26,07,22,8.10
2021,04,26,07,23,8.10
2021,04,26,07,24,8.20
2021,04,26,07,25,8.20
2021,04,26,07,26,8.20
2021,04,26,07,27,8.20
2021,04,26,07,28,8.20
2021,04,26,07,29,8.30
2021,04,26,07,30,8.30
2021,04,26,07,31,8.30
2021,04,26,07,32,8.30
2021,04,26,07,33,8.30
2021,04,26,07,34,8.40
2021,04,26,07,35,8.40
2021,04,26,07,36,8.40
2021,04,26,07,37,8.40
2021,04,26,07,38,8.40
2021,04,26,07,39,8.50
2021,04,26,07,40,8.50
2021,04,26,07,41,8.50
2021,04,26,07,42,8.50
2021,04,26,07,43,8.50
2021,04,26,07,44,8.50
2021,04,26,07,45,8.50
2021,04,26,07,46,8.60
2021,04,26,07,47,8.50
2021,04,26,07,48,8.60
2021,04,26,07,49,8.60
2021,04,26,07,50,8.60
2021,04,26,07,51,8.60
2021,04,26,07,52,8.60
2021,04,26,07,53,8.60
2021,04,26,07,54,8.60
2021,04,26,07,55,8.60
2021,04,26,07,56,8.60
2021,04,26,07,57,8.60
2021,04,26,07,58,8.60
2021,04,26,07,59,8.60
2021,04,26,08,00,8.60
2021,04,26,08,01,8.70
2021,04,26,08,02,8.70
2021,04,26,08,03,8.60
2021,04,26,08,04,8.70
2021,04,26,08,05,8.70
2021,04,26,08,06,8.70
2021,04,26,08,07,8.70
2021,04,26,08,08,8.70
2021,04,26,08,09,8.70
2021,04,26,08,10,8.70
2021,04,26,08,11,8.70
2021,04,26,08,12,8.70
2021,04,26,08,13,8.80
2021,04,26,08,14,8.80
2021,04,26,08,15,8.80
2021,04,26,08,16,8.80
2021,04,26,08,17,8.80
2021,04,26,08,18,8.80
2021,04,26,08,19,8.80
2021,04,26,08,20,8.80
2021,04,26,08,21,8.80
2021,04,26,08,22,8.80
2021,04,26,08,23,8.80
2021,04,26,08,24,8.80
2021,04,26,08,25,8.80
2021,04,26,08,26,8.80
2021,04,26,08,27,8.80
2021,04,26,08,28,8.80
2021,04,26,08,29,8.80
2021,04,26,08,30,8.80
2021,04,26,08,31,8.80
2021,04,26,08,32,8.80
2021,04,26,08,33,8.80
2021,04,26,08,34,8.80
2021,04,26,08,35,8.80
2021,04,26,08,36,8.80
2021,04,26,08,37,8.80
2021,04,26,08,38,8.80
2021,04,26,08,39,8.80
2021,04,26,08,40,8.80
2021,04,26,08,41,8.80
2021,04,26,08,42,8.80
2021,04,26,08,43,8.80
2021,04,26,08,44,8.80
2021,04,26,08,45,8.80
2021,04,26,08,46,8.80
2021,04,26,08,47,8.80
2021,04,26,08,48,8.80
2021,04,26,08,49,8.80
2021,04,26,08,50,8.80
2021,04,26,08,51,8.80
2021,04,26,08,52,8.80
2021,04,26,08,53,8.80
2021,04,26,08,54,8.80
2021,04,26,08,55,8.80
2021,04,26,08,56,8.80
2021,04,26,08,57,8.80
2021,04,26,08,58,8.90
2021,04,26,08,59,8.90
2021,04,26,09,00,8.90
2021,04,26,09,01,8.90
2021,04,26,09,02,8.90
2021,04,26,09,03,8.90
2021,04,26,09,04,8.90
2021,04,26,09,05,8.90
2021,04,26,09,06,8.90
2021,04,26,09,07,9.00
2021,04,26,09,08,9.00
2021,04,26,09,09,9.00
2021,04,26,09,10,9.00
2021,04,26,09,11,9.10
2021,04,26,09,12,9.10
2021,04,26,09,13,9.10
2021,04,26,09,14,9.10
2021,04,26,09,15,9.20
2021,04,26,09,16,9.20
2021,04,26,09,17,9.30
2021,04,26,09,18,9.30
2021,04,26,09,19,9.30
2021,04,26,09,20,9.40
2021,04,26,09,21,9.40
2021,04,26,09,22,9.50
2021,04,26,09,23,9.50
2021,04,26,09,24,9.40
2021,04,26,09,25,9.40
2021,04,26,09,26,9.40
2021,04,26,09,27,9.40
2021,04,26,09,28,9.40
2021,04,26,09,29,9.30
2021,04,26,09,30,9.30
2021,04,26,09,31,9.30
2021,04,26,09,32,9.40
2021,04,26,09,33,9.40
2021,04,26,09,34,9.40
2021,04,26,09,35,9.40
2021,04,26,09,36,9.40
2021,04,26,09,37,9.40
2021,04,26,09,38,9.40
2021,04,26,09,39,9.40
2021,04,26,09,40,9.50
2021,04,26,09,41,9.50
2021,04,26,09,42,9.60
2021,04,26,09,43,9.60
2021,04,26,09,44,9.60
2021,04,26,09,45,9.60
2021,04,26,09,46,9.70
2021,04,26,09,47,9.70
2021,04,26,09,48,9.70
2021,04,26,09,49,9.70
2021,04,26,09,50,9.70
2021,04,26,09,51,9.70
2021,04,26,09,52,9.70
2021,04,26,09,53,9.70
2021,04,26,09,54,9.70
2021,04,26,09,55,9.70
2021,04,26,09,56,9.70
2021,04,26,09,57,9.70
2021,04,26,09,58,9.70
2021,04,26,09,59,9.80
2021,04,26,10,00,9.80
2021,04,26,10,01,9.80
2021,04,26,10,02,9.80
2021,04,26,10,03,9.80
2021,04,26,10,04,9.80
2021,04,26,10,05,9.80
2021,04,26,10,06,9.90
2021,04,26,10,07,9.90
2021,04,26,10,08,9.90
2021,04,26,10,09,9.90
2021,04,26,10,10,10.00
2021,04,26,10,11,10.00
2021,04,26,10,12,10.00
2021,04,26,10,13,10.00
2021,04,26,10,14,10.00
2021,04,26,10,15,10.10
2021,04,26,10,16,10.10
2021,04,26,10,17,10.10
2021,04,26,10,18,10.10
2021,04,26,10,19,10.10
2021,04,26,10,20,10.20
2021,04,26,10,21,10.20
2021,04,26,10,22,10.20
2021,04,26,10,23,10.20
2021,04,26,10,24,10.20
2021,04,26,10,25,10.20
2021,04,26,10,26,10.30
2021,04,26,10,27,10.30
2021,04,26,10,28,10.30
2021,04,26,10,29,10.40
2021,04,26,10,30,10.40
2021,04,26,10,31,10.40
2021,04,26,10,32,10.50
2021,04,26,10,33,10.60
2021,04,26,10,34,10.60
2021,04,26,10,35,10.60
2021,04,26,10,36,10.60
2021,04,26,10,37,10.50
2021,04,26,10,38,10.50
2021,04,26,10,39,10.50
2021,04,26,10,40,10.60
2021,04,26,10,41,10.60
2021,04,26,10,42,10.60
2021,04,26,10,43,10.60
2021,04,26,10,44,10.60
2021,04,26,10,45,10.60
2021,04,26,10,46,10.60
2021,04,26,10,47,10.60
2021,04,26,10,48,10.60
2021,04,26,10,49,10.60
2021,04,26,10,50,10.70
2021,04,26,10,51,10.70
2021,04,26,10,52,10.70
2021,04,26,10,53,10.90
2021,04,26,10,54,11.00
2021,04,26,10,55,11.10
2021,04,26,10,56,11.10
2021,04,26,10,57,11.20
2021,04,26,10,58,11.20
2021,04,26,10,59,11.10
2021,04,26,11,00,11.10
2021,04,26,11,01,11.10
2021,04,26,11,02,11.10
2021,04,26,11,03,11.20
2021,04,26,11,04,11.20
2021,04,26,11,05,11.20
2021,04,26,11,06,11.30
2021,04,26,11,07,11.40
2021,04,26,11,08,11.40
2021,04,26,11,09,11.40
2021,04,26,11,10,11.40
2021,04,26,11,11,11.40
2021,04,26,11,12,11.30
2021,04,26,11,13,11.30
2021,04,26,11,14,11.30
2021,04,26,11,15,11.30
2021,04,26,11,16,11.30
2021,04,26,11,17,11.20
2021,04,26,11,18,11.30
2021,04,26,11,19,11.20
2021,04,26,11,20,11.20
2021,04,26,11,21,11.20
2021,04,26,11,22,11.20
2021,04,26,11,23,11.20
2021,04,26,11,24,11.10
2021,04,26,11,25,11.10
2021,04,26,11,26,11.10
2021,04,26,11,27,11.10
2021,04,26,11,28,11.10
2021,04,26,11,29,11.10
2021,04,26,11,30,11.10
2021,04,26,11,31,11.10
2021,04,26,11,32,11.20
2021,04,26,11,33,11.20
2021,04,26,11,34,11.10
2021,04,26,11,35,11.10
2021,04,26,11,36,11.10
2021,04,26,11,37,11.10
2021,04,26,11,38,11.10
2021,04,26,11,39,11.10
2021,04,26,11,40,11.20
2021,04,26,11,41,11.20
2021,04,26,11,42,11.20
2021,04,26,11,43,11.20
2021,04,26,11,44,11.30
2021,04,26,11,45,11.30
2021,04,26,11,46,11.30
2021,04,26,11,47,11.30
2021,04,26,11,48,11.30
2021,04,26,11,49,11.30
2021,04,26,11,50,11.30
2021,04,26,11,51,11.30
2021,04,26,11,52,11.30
2021,04,26,11,53,11.40
2021,04,26,11,54,11.40
2021,04,26,11,55,11.40
2021,04,26,11,56,11.50
2021,04,26,11,57,11.60
2021,04,26,11,58,11.70
2021,04,26,11,59,11.80
2021,04,26,12,00,11.80
2021,04,26,12,01,11.90
2021,04,26,12,02,12.00
2021,04,26,12,03,12.00
2021,04,26,12,04,12.10
2021,04,26,12,05,12.20
2021,04,26,12,06,12.20
2021,04,26,12,07,12.20
2021,04,26,12,08,12.20
2021,04,26,12,09,12.30
2021,04,26,12,10,12.30
2021,04,26,12,11,12.30
2021,04,26,12,12,12.30
2021,04,26,12,13,12.30
2021,04,26,12,14,12.40
2021,04,26,12,15,12.40
2021,04,26,12,16,12.40
2021,04,26,12,17,12.40
2021,04,26,12,18,12.50
2021,04,26,12,19,12.60
2021,04,26,12,20,12.60
2021,04,26,12,21,12.80
2021,04,26,12,22,12.80
2021,04,26,12,23,12.80
2021,04,26,12,24,12.90
2021,04,26,12,25,12.90
2021,04,26,12,26,12.90
2021,04,26,12,27,12.90
2021,04,26,12,28,13.00
2021,04,26,12,29,13.10
2021,04,26,12,30,13.10
2021,04,26,12,31,13.10
2021,04,26,12,32,13.10
2021,04,26,12,33,13.10
2021,04,26,12,34,13.20
2021,04,26,12,35,13.20
2021,04,26,12,36,13.20
2021,04,26,12,37,13.20
2021,04,26,12,38,13.20
2021,04,26,12,39,13.10
2021,04,26,12,40,13.10
2021,04,26,12,41,12.90
2021,04,26,12,42,12.80
2021,04,26,12,43,12.60
2021,04,26,12,44,12.50
2021,04,26,12,45,12.50
2021,04,26,12,46,12.40
2021,04,26,12,47,12.30
2021,04,26,12,48,12.30
2021,04,26,12,49,12.40
2021,04,26,12,50,12.40
2021,04,26,12,51,12.50
2021,04,26,12,52,12.50
2021,04,26,12,53,12.60
2021,04,26,12,54,12.70
2021,04,26,12,55,12.80
2021,04,26,12,56,13.00
2021,04,26,12,57,13.10
2021,04,26,12,58,13.20
2021,04,26,12,59,13.20
2021,04,26,13,00,13.20
2021,04,26,13,01,13.10
2021,04,26,13,02,13.10
2021,04,26,13,03,13.10
2021,04,26,13,04,13.10
2021,04,26,13,05,13.10
2021,04,26,13,06,13.10
2021,04,26,13,07,13.10
2021,04,26,13,08,13.10
2021,04,26,13,09,13.20
2021,04,26,13,10,13.30
2021,04,26,13,11,13.30
2021,04,26,13,12,13.30
2021,04,26,13,13,13.40
2021,04,26,13,14,13.40
2021,04,26,13,15,13.50
2021,04,26,13,16,13.50
2021,04,26,13,17,13.70
2021,04,26,13,18,13.70
2021,04,26,13,19,13.80
2021,04,26,13,20,13.80
2021,04,26,13,21,13.90
2021,04,26,13,22,13.90
2021,04,26,13,23,13.90
2021,04,26,13,24,13.90
2021,04,26,13,25,13.90
2021,04,26,13,26,13.90
2021,04,26,13,27,13.80
2021,04,26,13,28,13.80
2021,04,26,13,29,13.70
2021,04,26,13,30,13.70
2021,04,26,13,31,13.60
2021,04,26,13,32,13.70
2021,04,26,13,33,13.70
2021,04,26,13,34,13.70
2021,04,26,13,35,13.70
2021,04,26,13,36,13.80
2021,04,26,13,37,13.90
2021,04,26,13,38,13.90
2021,04,26,13,39,13.90
2021,04,26,13,40,14.00
2021,04,26,13,41,14.00
2021,04,26,13,42,14.10
2021,04,26,13,43,14.10
2021,04,26,13,44,14.00
2021,04,26,13,45,14.00
2021,04,26,13,46,14.00
2021,04,26,13,47,14.00
2021,04,26,13,48,14.00
2021,04,26,13,49,14.00
2021,04,26,13,50,14.10
2021,04,26,13,51,14.10
2021,04,26,13,52,14.20
2021,04,26,13,53,14.20
2021,04,26,13,54,14.30
2021,04,26,13,55,14.40
2021,04,26,13,56,14.50
2021,04,26,13,57,14.50
2021,04,26,13,58,14.50
2021,04,26,13,59,14.50
2021,04,26,14,00,14.40
2021,04,26,14,01,14.30
2021,04,26,14,02,14.20
2021,04,26,14,03,14.20
2021,04,26,14,04,14.20
2021,04,26,14,05,14.20
2021,04,26,14,06,14.20
2021,04,26,14,07,14.20
2021,04,26,14,08,14.20
2021,04,26,14,09,14.10
2021,04,26,14,10,14.10
2021,04,26,14,11,14.10
2021,04,26,14,12,14.00
2021,04,26,14,13,13.90
2021,04,26,14,14,13.90
2021,04,26,14,15,13.80
2021,04,26,14,16,13.80
2021,04,26,14,17,13.70
2021,04,26,14,18,13.70
2021,04,26,14,19,13.70
2021,04,26,14,20,13.60
2021,04,26,14,21,13.60
2021,04,26,14,22,13.50
2021,04,26,14,23,13.50
2021,04,26,14,24,13.50
2021,04,26,14,25,13.50
2021,04,26,14,26,13.40
2021,04,26,14,27,13.40
2021,04,26,14,28,13.40
2021,04,26,14,29,13.30
2021,04,26,14,30,13.30
2021,04,26,14,31,13.30
2021,04,26,14,32,13.30
2021,04,26,14,33,13.30
2021,04,26,14,34,13.30
2021,04,26,14,35,13.40
2021,04,26,14,36,13.40
2021,04,26,14,37,13.50
2021,04,26,14,38,13.50
2021,04,26,14,39,13.50
2021,04,26,14,40,13.60
2021,04,26,14,41,13.60
2021,04,26,14,42,13.70
2021,04,26,14,43,13.70
2021,04,26,14,44,13.70
2021,04,26,14,45,13.70
2021,04,26,14,46,13.70
2021,04,26,14,47,13.70
2021,04,26,14,48,13.70
2021,04,26,14,49,13.70
2021,04,26,14,50,13.80
2021,04,26,14,51,13.80
2021,04,26,14,52,13.90
2021,04,26,14,53,13.90
2021,04,26,14,54,13.90
2021,04,26,14,55,13.90
2021,04,26,14,56,13.90
2021,04,26,14,57,13.80
2021,04,26,14,58,13.80
2021,04,26,14,59,13.80
2021,04,26,15,00,13.80
2021,04,26,15,01,13.80
2021,04,26,15,02,13.80
2021,04,26,15,03,13.80
2021,04,26,15,04,13.80
2021,04,26,15,05,13.80
2021,04,26,15,06,13.80
2021,04,26,15,07,13.90
2021,04,26,15,08,13.90
2021,04,26,15,09,13.90
2021,04,26,15,10,14.00
2021,04,26,15,11,14.00
2021,04,26,15,12,14.00
2021,04,26,15,13,14.10
2021,04,26,15,14,14.10
2021,04,26,15,15,14.00
2021,04,26,15,16,14.00
2021,04,26,15,17,14.00
2021,04,26,15,18,13.90
2021,04,26,15,19,13.90
2021,04,26,15,20,13.90
2021,04,26,15,21,13.90
2021,04,26,15,22,14.00
2021,04,26,15,23,14.00
2021,04,26,15,24,14.10
2021,04,26,15,25,14.10
2021,04,26,15,26,14.10
2021,04,26,15,27,14.10
2021,04,26,15,28,14.10
2021,04,26,15,29,14.10
2021,04,26,15,30,14.10
2021,04,26,15,31,14.10
2021,04,26,15,32,14.10
2021,04,26,15,33,14.00
2021,04,26,15,34,14.00
2021,04,26,15,35,13.90
2021,04,26,15,36,13.90
2021,04,26,15,37,13.90
2021,04,26,15,38,13.90
2021,04,26,15,39,13.80
2021,04,26,15,40,13.70
2021,04,26,15,41,13.70
2021,04,26,15,42,13.70
2021,04,26,15,43,13.70
2021,04,26,15,44,13.60
2021,04,26,15,45,13.60
2021,04,26,15,46,13.60
2021,04,26,15,47,13.70
2021,04,26,15,48,13.70
2021,04,26,15,49,13.70
2021,04,26,15,50,13.70
2021,04,26,15,51,13.70
2021,04,26,15,52,13.70
2021,04,26,15,53,13.70
2021,04,26,15,54,13.60
2021,04,26,15,55,13.60
2021,04,26,15,56,13.60
2021,04,26,15,57,13.60
2021,04,26,15,58,13.50
2021,04,26,15,59,13.50
2021,04,26,16,00,13.50
2021,04,26,16,01,13.40
2021,04,26,16,02,13.40
2021,04,26,16,03,13.30
2021,04,26,16,04,13.30
2021,04,26,16,05,13.30
2021,04,26,16,06,13.30
2021,04,26,16,07,13.30
2021,04,26,16,08,13.30
2021,04,26,16,09,13.30
2021,04,26,16,10,13.30
2021,04,26,16,11,13.30
2021,04,26,16,12,13.30
2021,04,26,16,13,13.20
2021,04,26,16,14,13.20
2021,04,26,16,15,13.20
2021,04,26,16,16,13.20
2021,04,26,16,17,13.20
2021,04,26,16,18,13.20
2021,04,26,16,19,13.20
2021,04,26,16,20,13.20
2021,04,26,16,21,13.20
2021,04,26,16,22,13.20
2021,04,26,16,23,13.20
2021,04,26,16,24,13.20
2021,04,26,16,25,13.30
2021,04,26,16,26,13.30
2021,04,26,16,27,13.30
2021,04,26,16,28,13.30
2021,04,26,16,29,13.30
2021,04,26,16,30,13.40
2021,04,26,16,31,13.40
2021,04,26,16,32,13.40
2021,04,26,16,33,13.40
2021,04,26,16,34,13.40
2021,04,26,16,35,13.40
2021,04,26,16,36,13.40
2021,04,26,16,37,13.40
2021,04,26,16,38,13.50
2021,04,26,16,39,13.50
2021,04,26,16,40,13.60
2021,04,26,16,41,13.70
2021,04,26,16,42,13.70
2021,04,26,16,43,13.80
2021,04,26,16,44,13.80
2021,04,26,16,45,13.80
2021,04,26,16,46,13.90
2021,04,26,16,47,13.90
2021,04,26,16,48,13.90
2021,04,26,16,49,14.00
2021,04,26,16,50,14.00
2021,04,26,16,51,14.00
2021,04,26,16,52,14.00
2021,04,26,16,53,14.00
2021,04,26,16,54,14.00
2021,04,26,16,55,13.90
2021,04,26,16,56,13.90
2021,04,26,16,57,14.00
2021,04,26,16,58,13.90
2021,04,26,16,59,13.90
2021,04,26,17,00,13.90
2021,04,26,17,01,13.90
2021,04,26,17,02,13.90
2021,04,26,17,03,13.90
2021,04,26,17,04,13.90
2021,04,26,17,05,13.80
2021,04,26,17,06,13.80
2021,04,26,17,07,13.80
2021,04,26,17,08,13.70
2021,04,26,17,09,13.70
2021,04,26,17,10,13.70
2021,04,26,17,11,13.70
2021,04,26,17,12,13.70
2021,04,26,17,13,13.60
2021,04,26,17,14,13.60
2021,04,26,17,15,13.60
2021,04,26,17,16,13.70
2021,04,26,17,17,13.70
2021,04,26,17,18,13.80
2021,04,26,17,19,13.80
2021,04,26,17,20,13.90
2021,04,26,17,21,14.00
2021,04,26,17,22,14.10
2021,04,26,17,23,14.20
2021,04,26,17,24,14.30
2021,04,26,17,25,14.30
2021,04,26,17,26,14.30
2021,04,26,17,27,14.40
2021,04,26,17,28,14.40
2021,04,26,17,29,14.40
2021,04,26,17,30,14.40
2021,04,26,17,31,14.40
2021,04,26,17,32,14.50
2021,04,26,17,33,14.50
2021,04,26,17,34,14.50
2021,04,26,17,35,14.50
2021,04,26,17,36,14.60
2021,04,26,17,37,14.60
2021,04,26,17,38,14.60
2021,04,26,17,39,14.70
2021,04,26,17,40,14.60
2021,04,26,17,41,14.60
2021,04,26,17,42,14.60
2021,04,26,17,43,14.50
2021,04,26,17,44,14.50
2021,04,26,17,45,14.50